Regional Weather Roundup
Issued by NWS

Home | Current Version | Previous Version | Graphics & Text | Print | Product List | Glossary On
Versions: 1 2 3 4 5 6 7 8 9 10 11 12 13 14 15 16 17 18 19 20 21 22 23 24 25 26 27 28 29 30 31 32 33 34 35 36 37 38 39 40 41 42 43 44 45 46 47 48 49 50
000
ASUS45 KBOI 241810
RWRID
WEATHER ROUNDUP FOR IDAHO
NATIONAL WEATHER SERVICE BOISE ID
1200 PM MDT THU JUL 24 2014

NOTE: "FAIR" INDICATES FEW OR NO CLOUDS BELOW 12000 FEET
WITH NO SIGNIFICANT WEATHER AND/OR OBSTRUCTIONS TO VISIBILITY

IDZ012-014-241900-
SOUTHWEST IDAHO


CITY           SKY/WX    TMP DP  RH WIND       PRES   REMARKS
BOISE          SUNNY     67  34  29 NW9G17    30.22S
CALDWELL       SUNNY     66  36  32 NW14      30.24S
MOUNTAIN HOME  SUNNY     69  36  29 N16       30.20S
$$

IDZ016-017-241900-
SOUTHCENTRAL IDAHO


CITY           SKY/WX    TMP DP  RH WIND       PRES   REMARKS
BURLEY         SUNNY     70  42  36 W16G25    30.19R
JEROME         SUNNY     70  40  33 W20G29    30.21R
TWIN FALLS     SUNNY     71  38  29 W21G28    30.22R
$$

IDZ019>023-241900-
SOUTHEAST IDAHO


CITY           SKY/WX    TMP DP  RH WIND       PRES   REMARKS
IDAHO FALLS    SUNNY     77  46  33 S20G29    30.12S
POCATELLO      SUNNY     75  43  31 W25G35    30.16R
REXBURG        SUNNY     75  44  33 S20G26    30.10F
$$

IDZ006-010-011-018-031-032-241900-
CENTRAL IDAHO MOUNTAINS


CITY           SKY/WX    TMP DP  RH WIND       PRES   REMARKS
MCCALL         SUNNY     60  28  29 S12       30.21R
HAILEY         SUNNY     72  27  18 SW12      30.17F
STANLEY          N/A     62  25  24 S12G20    30.25S
SALMON         SUNNY     75  37  25 W16G25    30.01R
CHALLIS        SUNNY     73  20  13 W17G26    30.13R
$$

IDZ002-004-006-007-026-241900-
NORTHERN IDAHO


CITY           SKY/WX    TMP DP  RH WIND       PRES   REMARKS
LEWISTON       MOSUNNY   69  40  34 E9        30.16F
LOWELL           N/A     66  42  41 CALM      30.19F
COEUR D`ALENE  CLOUDY    59  45  58 W3        30.12S
MULLAN PASS    CLOUDY    38  35  89 MISG      30.18S
$$


USA.gov is the U.S. government's official web portal to all federal, state and local government web resources and services.